This is the latest recevied weather packets stored in our database for station/object KE4LOJ. If no packets are shown the sender has not sent any weather packets the latest 10 day(s).
| Time | Temp. | Humidity | Pressure | Rain* | Wind** | Luminosity | Snow |
|---|---|---|---|---|---|---|---|
| 1777850609 | 22.22° C | 68% | 1016.9 hPa | 0 mm | - | 28 W/m² | - |
| 1777850307 | 22.78° C | 67% | 1016.7 hPa | 0 mm | - | 32 W/m² | - |
| 1777850004 | 22.78° C | 66% | 1016.8 hPa | 0 mm | - | 36 W/m² | - |
| 1777849700 | 22.78° C | 66% | 1016.7 hPa | 0 mm | - | 42 W/m² | - |
| 1777849397 | 22.78° C | 65% | 1017 hPa | 0 mm | - | 52 W/m² | - |
| 1777849095 | 22.78° C | 65% | 1016.8 hPa | 0 mm | - | 64 W/m² | - |
| 1777848790 | 23.33° C | 64% | 1016.8 hPa | 0 mm | - | 72 W/m² | - |
| 1777848487 | 23.89° C | 63% | 1016.7 hPa | 0 mm | - | 117 W/m² | - |
| 1777848184 | 23.33° C | 64% | 1016.8 hPa | 0 mm | - | 103 W/m² | - |
| 1777847882 | 23.33° C | 64% | 1016.7 hPa | 0 mm | - | 108 W/m² | - |
| 1777847579 | 23.33° C | 63% | 1016.9 hPa | 0 mm | - | 103 W/m² | - |
| 1777847275 | 23.33° C | 63% | 1016.9 hPa | 0 mm | - | 188 W/m² | - |
| 1777846973 | 23.89° C | 62% | 1016.9 hPa | 0 mm | - | 260 W/m² | - |
| 1777846671 | 24.44° C | 61% | 1016.7 hPa | 0 mm | - | 291 W/m² | - |
| 1777846369 | 23.89° C | 62% | 1016.8 hPa | 0 mm | - | 295 W/m² | - |
| 1777846065 | 23.89° C | 62% | 1016.8 hPa | 0 mm | - | 337 W/m² | - |
| 1777845762 | 23.89° C | 61% | 1016.6 hPa | 0 mm | - | 316 W/m² | - |
| 1777845459 | 23.89° C | 61% | 1016.7 hPa | 0 mm | - | 299 W/m² | - |
| 1777845156 | 23.89° C | 62% | 1016.8 hPa | 0 mm | - | 358 W/m² | - |
| 1777844854 | 23.89° C | 60% | 1016.8 hPa | 0 mm | - | 163 W/m² | - |
| 1777844550 | 23.89° C | 60% | 1016.7 hPa | 0 mm | - | 399 W/m² | - |
| 1777844249 | 23.89° C | 61% | 1016.5 hPa | 0 mm | - | 344 W/m² | - |
| 1777843945 | 24.44° C | 61% | 1016.6 hPa | 0 mm | - | 435 W/m² | - |
| 1777843642 | 23.89° C | 60% | 1016.7 hPa | 0 mm | - | 482 W/m² | - |
| 1777843340 | 23.89° C | 60% | 1016.6 hPa | 0 mm | - | 340 W/m² | - |
* Rain latest hour (hover to see other rain measurements)
** Current wind speed in m/s (hover to see current wind gust speed)